User: anonymous
Location: Vancouver
(49.2500°N, 123.1330°W)
Time: 06:21:50
(UTC-07:00)
Language:

Cosmos 1340 Rocket - Orbit

View from above orbital plane
View from above orbital plane
View from above satellite
View from above satellite

Ground track
Ground track

The orbit data is extracted from the following two-line orbital elements,

1 13068U 82013B   14234.73368150  .00000649  00000-0  44633-4 0  4795
2 13068 081.2055 316.1704 0024355 111.4755 248.9068 15.04331849768541
Epoch (UTC): 22 August 2014 17:36:30
Eccentricity: 0.0024355
inclination: 81.2055°
perigee height: 536 km
apogee height: 570 km
right ascension of ascending node: 316.1704°
argument of perigee: 111.4755°
revolutions per day: 15.04331849
mean anomaly at epoch: 248.9068°
orbit number at epoch: 76854

The dashed part of the orbit path shows where the satellite is in the earth's shadow,  

DLR